STARLINK BH (44290 NORAD) Tracking and Keplerian Element Data

This shows tracking and keplerian element data for the satellite.

Feedback or suggestion? Click here.




ElementValue
Catalog44290
NameSTARLINK BH
Epoch Orbit336
Epoch Day158.4010991
Epoch Year2019
RAAN108.9284
Inclination53.0038
Eccentricity0.002769
Argument of Perigee328.7738
Mean Anonmoly31.1608
Mean Motion15.14883077
Decay Rate-0.02985559
L11 44290U 19029BH 19158.40109910 -.02985559 00000-0 -17477+0 0 9998
L22 44290 53.0038 108.9284 0027690 328.7738 31.1608 15.14883077 3369

Live tracking and technical data element details for STARLINK BH (NORAD 44290). STARLINK BH can be tracked NOW for your location showing map with azimuth and elevation plus other details from your city location.

Track the satellite on the map from your city or location and see movement details for azimuth, elevation, latitude, longitude, range, height, and movement on the map or in text.







IsCatalogInMostPopularTable: catalog: 44290, numindb: 74
Update: records affected: 1



GetName: 44290 STARLINK BH

Hit Count: updated at: Fri, 19 Jul 2019 08:11:16 GMT